Date String (YYYY-MM-DD hh:mm:ss) UTC,Instrument flags,Ambient pressure (hPa),Sample flow (lpm),Bypass flow (lpm),Sample temperature (°C),Ambient temperature (°C),ASC tube jacket temperature (°C),LED temperature (°C),Box temperature (°C),Sample RH (%),Span deviation,Mass concentration (μg/m³),Mass concentration (μg/m³),Mass concentration (μg/m³)
DateTimeUTC,F1_M11,P_M11,Q1_M11,Q2_M11,T1_M11,T2_M11,T3_M11,T4_M11,T5_M11,U1_M11,ZSPAN_M11,X0_M11,X2_M11,X1_M11
2021-09-17 19:00:00,,0834.4,4.99,0.00,29.8,28.5,00.0,38.9,31.5,18.7,0002.1,0021.52,0007.69,0006.17
2021-09-17 19:01:00,,0834.4,5.01,0.00,29.8,28.6,00.0,38.9,31.6,18.8,0001.9,0023.12,0007.65,0006.14
2021-09-17 19:02:00,,0834.4,5.00,0.00,29.8,28.7,00.0,38.9,31.6,18.6,0001.9,0022.75,0007.61,0006.11
2021-09-17 19:03:00,,0834.3,4.99,0.00,29.9,28.8,00.0,39.0,31.7,18.8,0001.7,0022.57,0007.57,0006.07
2021-09-17 19:04:00,,0834.3,5.00,0.00,29.9,28.9,00.0,39.0,31.7,18.8,0001.5,0024.14,0007.53,0006.02
2021-09-17 19:05:00,,0834.3,5.02,0.00,29.9,29.0,00.0,39.0,31.7,18.6,0001.4,0024.92,0007.46,0005.98
2021-09-17 19:06:00,,0834.3,4.99,0.00,29.9,29.0,00.0,39.0,31.7,18.5,0001.1,0024.17,0007.38,0005.97
2021-09-17 19:07:00,,0834.3,5.00,0.00,29.9,29.0,00.0,39.0,31.7,18.5,0000.7,0023.85,0007.32,0005.94
2021-09-17 19:08:00,,0834.3,5.00,0.00,29.9,29.1,00.0,39.0,31.7,18.5,0000.8,0023.69,0007.25,0005.89
2021-09-17 19:09:00,,0834.3,5.00,0.00,29.9,29.1,00.0,39.0,31.7,18.5,0001.1,0023.42,0007.18,0005.85
2021-09-17 19:10:00,,0834.2,4.99,0.00,30.0,29.2,00.0,39.0,31.8,18.6,0001.3,0022.20,0007.12,0005.81
2021-09-17 19:11:00,,0834.3,5.02,0.00,30.0,29.2,00.0,39.0,31.8,18.6,0001.3,0021.48,0007.04,0005.76
2021-09-17 19:12:00,,0834.3,4.99,0.00,30.0,29.2,00.0,39.0,31.7,18.5,0001.1,0018.86,0006.98,0005.73
2021-09-17 19:13:00,,0834.3,4.99,0.00,30.0,29.2,00.0,39.0,31.7,18.5,0001.4,0018.28,0006.94,0005.71
2021-09-17 19:14:00,,0834.3,5.01,0.00,30.0,29.2,00.0,39.0,31.8,18.4,0001.8,0017.89,0006.88,0005.70
2021-09-17 19:15:00,,0834.2,4.98,0.00,30.0,29.2,00.0,39.1,31.8,18.4,0002.0,0017.35,0006.86,0005.70
2021-09-17 19:16:00,,0834.3,5.00,0.00,30.0,29.3,00.0,39.1,31.7,18.4,0001.3,0017.16,0006.82,0005.69
2021-09-17 19:17:00,,0834.3,5.00,0.00,30.0,29.3,00.0,39.1,31.8,18.4,0001.6,0017.74,0006.85,0005.67
2021-09-17 19:18:00,,0834.3,4.98,0.00,30.0,29.3,00.0,39.1,31.8,18.4,0002.3,0018.27,0006.83,0005.65
2021-09-17 19:19:00,,0834.3,5.01,0.00,30.1,29.3,00.0,39.1,31.8,18.4,0002.4,0017.91,0006.83,0005.65
2021-09-17 19:20:00,,0834.3,5.00,0.00,30.1,29.3,00.0,39.1,31.8,18.3,0001.9,0016.87,0006.87,0005.67
2021-09-17 19:21:00,,0834.3,4.99,0.00,30.1,29.3,00.0,39.1,31.8,18.3,0001.5,0016.87,0006.87,0005.69
2021-09-17 19:22:00,,0834.3,5.00,0.00,30.1,29.4,00.0,39.1,31.8,18.2,0001.3,0017.34,0006.91,0005.72
2021-09-17 19:23:00,,0834.2,4.99,0.00,30.1,29.4,00.0,39.2,31.9,18.2,0001.6,0017.92,0006.97,0005.74
2021-09-17 19:24:00,,0834.2,4.99,0.00,30.1,29.2,00.0,39.2,31.8,18.2,0001.5,0018.08,0007.04,0005.77
2021-09-17 19:25:00,,0834.1,5.00,0.00,30.0,27.4,00.0,39.1,31.3,18.5,0001.2,0018.89,0007.10,0005.77
2021-09-17 19:26:00,,0834.1,4.99,0.00,29.8,25.9,00.0,39.1,30.9,18.7,0000.9,0018.52,0007.13,0005.77
2021-09-17 19:27:00,,0834.1,5.02,0.00,29.7,25.9,00.0,39.0,30.9,18.8,0001.0,0017.69,0007.15,0005.80
2021-09-17 19:28:00,,0834.1,4.99,0.00,29.6,26.4,00.0,39.0,31.0,18.9,0001.3,0017.98,0007.18,0005.82
2021-09-17 19:29:00,,0834.1,5.00,0.00,29.6,26.9,00.0,38.9,31.1,18.9,0001.5,0017.75,0007.26,0005.84
2021-09-17 19:30:00,,0834.1,5.01,0.00,29.6,27.3,00.0,38.9,31.2,18.9,0001.3,0017.86,0007.30,0005.85
2021-09-17 19:31:00,,0834.1,4.99,0.00,29.6,27.7,00.0,38.9,31.3,19.1,0001.4,0018.25,0007.27,0005.83
2021-09-17 19:32:00,,0834.0,5.00,0.00,29.6,27.9,00.0,38.8,31.3,19.1,0001.3,0019.51,0007.26,0005.81
2021-09-17 19:33:00,,0834.0,4.99,0.00,29.7,28.2,00.0,38.8,31.4,19.1,0001.1,0019.08,0007.17,0005.78
2021-09-17 19:34:00,,0834.1,5.01,0.00,29.7,28.4,00.0,38.8,31.4,19.1,0001.0,0018.91,0007.11,0005.76
2021-09-17 19:35:00,,0834.0,5.00,0.00,29.7,28.5,00.0,38.8,31.5,18.9,0000.7,0019.56,0007.08,0005.74
2021-09-17 19:36:00,,0834.0,4.99,0.00,29.8,28.7,00.0,38.8,31.6,19.0,0000.5,0019.31,0007.03,0005.73
2021-09-17 19:37:00,,0834.0,5.01,0.00,29.8,28.8,00.0,38.9,31.6,18.9,0001.0,0019.50,0007.00,0005.72
2021-09-17 19:38:00,,0834.0,4.99,0.00,29.8,28.9,00.0,38.9,31.7,18.9,0000.9,0020.02,0007.01,0005.69
2021-09-17 19:39:00,,0834.0,4.99,0.00,29.9,29.0,00.0,38.9,31.7,19.0,0000.8,0020.26,0007.01,0005.66
2021-09-17 19:40:00,,0834.0,5.00,0.00,29.9,29.1,00.0,38.9,31.7,19.1,0000.6,0020.74,0006.93,0005.61
2021-09-17 19:41:00,,0834.0,5.01,0.00,29.9,29.1,00.0,38.9,31.8,19.1,0000.6,0021.63,0006.84,0005.58
2021-09-17 19:42:00,,0834.0,4.99,0.00,30.0,29.2,00.0,39.0,31.9,18.9,0000.0,0022.56,0006.88,0005.58
2021-09-17 19:43:00,,0834.0,5.02,0.00,30.0,29.2,00.0,39.0,31.8,18.8,0000.0,0020.99,0006.85,0005.58
2021-09-17 19:44:00,,0834.0,4.99,0.00,30.0,29.2,00.0,39.0,31.9,18.8,0000.0,0021.59,0006.95,0005.61
2021-09-17 19:45:00,,0834.0,5.01,0.00,30.0,29.3,00.0,39.0,31.9,18.8,0000.0,0022.85,0007.05,0005.64
2021-09-17 19:46:00,,0834.0,5.00,0.00,30.1,29.3,00.0,39.0,31.9,18.9,0002.1,0023.02,0007.09,0005.66
2021-09-17 19:47:00,,0834.0,5.01,0.00,30.1,29.4,00.0,39.1,31.9,18.9,0002.6,0022.84,0007.12,0005.68
2021-09-17 19:48:00,,0834.0,5.00,0.00,30.1,29.4,00.0,39.1,31.9,18.8,0003.1,0023.23,0007.15,0005.72
2021-09-17 19:49:00,,0834.0,5.00,0.00,30.1,29.4,00.0,39.1,32.0,19.1,0003.3,0025.01,0007.15,0005.74
2021-09-17 19:50:00,,0834.0,5.01,0.00,30.1,29.4,00.0,39.1,32.0,18.8,0003.6,0026.22,0007.15,0005.77
2021-09-17 19:51:00,,0833.9,4.99,0.00,30.1,28.7,00.0,39.1,31.8,18.8,0003.6,0025.88,0007.20,0005.80
2021-09-17 19:52:00,,0833.8,5.00,0.00,30.0,26.5,00.0,39.1,31.1,18.8,0002.9,0025.31,0007.35,0005.85
2021-09-17 19:53:00,,0833.8,5.02,0.00,29.8,25.6,00.0,39.0,30.9,19.0,0002.7,0024.48,0007.42,0005.88
2021-09-17 19:54:00,,0833.8,4.99,0.00,29.7,25.9,00.0,39.0,30.9,19.1,0002.9,0024.33,0007.50,0005.90
2021-09-17 19:55:00,,0833.8,4.99,0.00,29.6,26.4,00.0,38.9,31.0,19.1,0002.5,0023.92,0007.47,0005.89
2021-09-17 19:56:00,,0833.8,5.01,0.00,29.6,26.9,00.0,38.9,31.1,19.2,0002.3,0023.18,0007.47,0005.90
2021-09-17 19:57:00,,0833.7,5.01,0.00,29.6,27.3,00.0,38.8,31.2,19.3,0002.0,0023.04,0007.49,0005.92
2021-09-17 19:58:00,,0833.7,4.99,0.00,29.6,27.6,00.0,38.8,31.3,19.2,0001.9,0023.44,0007.52,0005.93
2021-09-17 19:59:00,,0833.7,5.00,0.00,29.6,27.9,00.0,38.8,31.3,19.2,0002.1,0022.47,0007.55,0005.93
